Presure
167 180 190 154 135 149 132 107 112 111 146 143 162 156 164 171 163 160 155 96 159 160 125 96 102 108 96 108 95 91 117 106 115 116 122 125 103 140 146 142 159 168 162
134 174 181 186 172 133 166 134 143 133 143 148 169 156 159 105 168 129 144 160 147 152 162 178 176 137 137 127 96 96 106 109 105 116 123 144 144 143 116 97 119 154 150
146 158 172 175 189 182 133 166 137 143 145 142 140 152 165 158 113 170 160 143 144 158 148 162 155 149 149 164 159 144 149 146 128 132 127 139 145 156 160 163 136 111 144
91 113 101 170 180 186 184 137 151 118 143 135 140 139 153 157 156 163 151 163 142 139 144 171 160 169 161 155 126 122 97 138 148 126 155 161 165 155 137 139 138 156 135
75 101 97 101 163 167 185 178 124 150 142 139 145 153 136 153 137 165 124 172 166 159 140 142 137 153 159 159 147 164 121 138 166 165 166 161 154 126 125 126 132 129 129
192 185 181 170 92 163 168 180 181 134 136 139 135 105 137 117 149 155 101 127 167 170 167 156 149 135 145 156 152 146 166 151 159 157 133 120 132 127 129 153 135 123 138
202 206 198 192 179 175 112 170 180 183 179 151 137 143 120 125 136 103 153 123 149 168 170 172 164 152 144 139 151 159 159 161 156 153 152 153 153 151 149 141 141 141 147
215 198 190 201 197 184 176 92 138 170 185 176 154 133 137 122 141 136 137 115 119 137 162 167 117 170 165 137 138 136 139 150 150 149 139 141 133 134 150 138 166 114 97
203 208 212 210 195 201 187 181 160 96 151 181 173 132 126 151 126 139 139 148 151 151 112 164 159 130 138 172 171 109 137 142 144 146 138 135 147 166 156 103 97 97 100
157 215 210 216 215 202 196 194 182 172 91 148 169 180 138 128 152 135 139 136 137 106 107 136 163 151 157 161 171 170 171 171 142 118 126 162 162 93 121 91 99 110 123
167 124 217 204 213 221 210 189 201 180 147 172 100 130 177 175 175 137 152 133 140 140 106 158 136 132 132 147 157 150 167 166 165 163 163 159 154 127 111 126 128 129 141
192 160 167 162 221 208 212 226 193 207 187 136 163 160 180 163 156 143 140 138 131 130 126 140 154 153 154 151 152 156 158 153 145 144 144 149 147 148 118 103 118 144 130
194 235 142 240 240 163 118 211 230 195 206 181 172 103 166 173 172 167 138 145 137 139 139 138 140 141 155 155 147 125 138 146 148 131 128 126 116 127 130 121 117 123 149
142 203 77 141 86 160 112 215 154 224 195 212 190 172 186 173 178 192 170 144 141 141 141 137 142 143 143 130 152 149 152 152 147 128 128 132 126 128 120 102 111 148 153
238 108 133 82 219 112 138 241 206 208 214 200 196 195 175 165 124 172 186 179 147 142 142 137 139 139 147 145 147 109 129 130 133 135 131 141 148 136 122 120 127 142 133
234 324 127 264 189 251 185 230 247 159 199 219 201 192 201 182 181 170 187 182 177 171 141 137 143 140 140 137 136 141 137 130 141 133 137 147 138 139 136 131 144 165 163
306 97 132 317 226 141 87 129 191 118 121 129 224 231 186 203 190 184 168 181 196 181 173 152 134 136 146 144 145 146 146 143 151 129 145 138 141 145 160 120 162 161 173
313 163 314 318 291 316 215 129 204 148 105 209 168 183 238 198 192 188 182 177 174 176 190 160 126 151 152 143 137 139 134 111 142 140 134 153 156 149 153 147 147 160 175
277 234 313 294 320 282 206 213 244 133 163 176 204 209 200 214 166 199 186 183 174 173 177 178 139 150 160 156 160 147 139 126 123 135 146 148 132 154 167 153 162 129 167
254 308 291 379 351 404 321 366 313 244 195 265 197 197 195 202 189 173 202 191 180 183 178 179 177 175 177 172 171 166 157 131 151 147 140 162 172 169 136 160 171 179 174
259 288 374 83 362 363 396 416 308 331 277 246 200 203 139 196 202 179 202 186 180 191 184 181 173 171 177 176 172 167 152 167 171 168 163 149 145 163 160 177 159 144 174
246 376 286 313 149 350 382 411 307 309 258 217 208 194 187 198 200 199 186 196 181 185 169 171 182 172 162 175 143 153 159 165 168 151 154 161 170 163 119 174 162 171 188
327 358 331 332 350 393 409 412 307 320 246 237 225 213 194 211 144 202 192 205 152 172 179 169 171 172 173 164 172 170 165 163 166 167 163 174 163 167 170 174 184 162 179
385 336 324 306 326 335 370 411 309 263 235 227 216 205 211 200 185 146 196 186 202 188 174 172 179 144 167 164 134 163 174 125 160 143 134 164 172 156 182 162 175 174 184
358 319 303 308 308 334 344 362 293 257 242 183 217 239 198 197 207 200 151 180 202 194 193 185 179 171 143 132 143 171 157 154 177 163 175 153 143 181 176 180 159 179 143
327 311 304 305 304 305 335 272 263 244 230 214 220 203 212 205 206 185 208 175 198 190 182 168 182 174 176 171 169 166 172 170 144 166 139 139 160 153 152 190 170 136 140
Wind_Speed
43 45 46 39 39 39 34 23 29 24 28 27 28 26 26 26 27 26 26 19 23 23 20 16 17 17 14 16 12 9 17 15 16 16 18 19 15 21 21 21 23 24 25
33 46 44 47 47 39 44 36 36 32 31 31 32 27 27 27 29 28 26 26 26 27 25 23 24 31 30 26 15 15 16 16 14 19 22 24 24 24 18 15 18 21 23
44 44 43 45 48 48 41 46 37 38 35 33 31 29 30 30 27 31 31 29 28 28 28 28 30 31 31 27 28 24 28 27 26 26 25 26 27 26 22 21 24 21 24
28 30 31 45 47 48 49 43 45 34 39 35 35 32 32 31 32 31 31 33 31 30 30 29 29 29 30 31 27 25 16 28 31 27 30 27 25 26 26 25 25 24 26
16 27 31 31 50 48 50 51 38 47 43 39 37 38 35 34 29 35 28 34 34 35 32 32 30 34 33 33 28 31 24 25 29 29 27 28 27 26 26 26 26 27 26
59 59 57 55 27 52 53 53 55 42 43 44 40 32 38 32 35 35 28 33 35 35 37 37 36 33 33 36 34 34 33 32 31 29 29 25 28 27 26 28 28 28 29
60 62 64 61 60 59 36 57 56 57 58 52 44 44 40 39 38 32 37 34 35 36 38 38 38 39 38 35 36 36 36 34 33 31 30 30 30 29 29 30 30 32 32
62 63 63 66 65 64 62 30 47 56 59 59 55 45 43 40 41 40 39 34 35 35 38 38 31 39 40 36 36 35 33 35 34 32 33 33 31 29 31 29 32 32 32
65 66 68 69 67 69 68 66 58 32 55 61 60 47 43 51 44 44 42 42 42 40 32 40 38 36 34 42 43 27 36 36 35 35 35 34 36 35 32 29 33 35 38
45 67 70 72 74 71 71 72 68 65 27 56 63 61 53 44 55 47 45 45 43 33 32 37 40 40 41 40 43 41 42 42 37 31 33 38 39 30 31 32 37 38 39
50 41 72 74 77 77 76 71 75 71 57 67 33 46 64 64 63 48 54 47 46 44 32 46 42 41 38 43 40 40 43 40 39 37 37 39 38 31 36 32 32 34 38
61 49 57 46 71 78 78 80 75 77 76 54 63 68 67 65 61 55 53 50 48 47 42 44 45 45 46 47 42 43 44 41 37 36 38 40 39 39 36 43 39 39 40
50 67 42 70 75 53 36 81 80 78 81 77 73 40 71 67 69 68 54 56 51 50 48 47 46 45 49 51 47 41 42 42 41 37 36 35 38 36 37 37 42 43 44
35 57 28 43 27 55 36 87 57 81 81 84 82 76 76 73 73 72 65 60 56 54 52 49 49 49 48 43 52 51 50 49 45 39 39 42 40 40 40 47 46 45 36
66 31 35 30 68 38 48 85 81 74 83 86 81 86 74 70 54 71 71 69 61 58 58 52 52 51 54 51 55 39 41 42 42 42 41 44 47 45 48 44 46 45 48
50 65 42 75 54 85 66 89 87 59 80 87 88 84 84 82 80 73 72 70 71 70 61 56 59 55 54 52 53 53 49 45 51 44 46 52 42 44 41 42 50 50 47
59 30 36 68 54 36 28 41 67 37 27 33 87 66 79 86 87 80 72 72 72 70 70 68 54 55 62 60 61 61 58 57 61 46 54 49 51 52 61 50 54 51 45
56 42 66 66 64 74 74 45 74 46 39 79 66 82 82 88 85 83 79 74 74 72 69 68 54 69 71 62 58 60 51 51 57 51 46 65 67 59 58 56 55 50 43
56 49 64 59 61 69 59 75 65 47 60 66 83 86 80 84 69 87 83 78 77 76 73 71 58 58 68 70 68 69 60 50 48 60 60 63 49 66 64 62 62 56 46
54 64 59 40 43 44 42 71 87 94 74 94 76 93 74 81 81 75 83 79 78 76 75 71 69 69 67 70 69 70 72 62 71 67 65 76 68 71 54 64 58 59 53
53 58 33 26 37 42 44 53 87 87 95 91 91 83 42 89 91 77 83 84 79 73 75 73 72 70 68 69 70 73 75 72 70 73 77 48 42 62 60 65 58 50 44
54 27 24 38 24 39 40 43 91 99 101 98 99 92 92 88 89 89 74 85 79 78 77 75 70 73 78 71 52 70 66 73 74 67 62 73 78 73 57 68 49 63 65
38 7 7 10 16 13 29 37 95 108 107 103 105 105 94 90 57 91 82 85 66 75 78 78 76 73 76 70 75 73 75 71 74 77 70 80 71 63 68 71 68 41 63
8 5 13 14 2 12 21 24 99 111 113 113 111 97 101 91 72 64 80 75 82 82 75 79 77 53 73 80 60 79 74 61 74 55 56 76 79 47 75 43 66 58 65
3 2 12 5 8 7 22 43 104 116 119 75 107 100 94 85 87 86 65 74 83 80 78 80 79 79 50 52 55 77 61 72 75 74 78 49 50 81 65 77 47 66 56
4 6 5 4 3 16 23 95 107 116 108 104 109 96 105 94 87 76 78 73 73 76 80 77 78 78 77 81 77 79 79 78 50 70 61 66 43 46 48 79 54 64 66
Wind_Direction
240 239 237 237 246 244 245 239 239 251 240 233 237 236 227 226 228 230 233 251 228 231 240 248 243 240 244 241 252 260 250 247 257 259 271 274 268 265 266 266 257 259 269
247 240 239 236 237 248 235 248 246 242 244 239 236 237 233 241 227 227 222 229 233 232 235 228 230 238 241 248 252 256 251 253 259 262 267 260 261 263 269 276 275 271 266
244 244 239 239 237 237 244 235 248 246 242 234 234 238 232 232 242 227 231 225 230 235 235 238 238 238 241 238 240 242 246 248 262 266 269 269 263 253 253 255 269 282 275
238 245 247 241 238 238 236 244 243 243 245 240 239 231 238 236 230 229 233 233 231 229 236 238 239 237 241 243 250 252 261 254 255 264 251 250 253 254 265 266 271 270 274
210 251 252 248 238 235 234 233 243 240 243 240 239 242 231 241 240 233 242 231 234 236 234 237 234 245 243 244 246 244 255 251 246 247 248 251 255 266 268 269 271 271 277
242 241 238 239 247 237 234 232 233 243 242 240 235 242 232 239 241 241 250 237 236 237 239 240 243 238 242 248 249 253 245 252 250 249 256 261 261 265 269 270 274 274 282
239 240 241 235 237 235 239 233 231 233 232 237 240 240 240 240 233 250 241 240 242 240 241 242 241 243 245 241 247 250 252 252 251 252 256 259 262 267 269 272 275 278 285
241 238 239 239 233 235 235 242 237 231 233 231 236 239 234 243 238 236 236 248 243 244 244 245 247 246 247 249 244 244 248 253 253 253 254 260 264 265 270 271 274 275 278
244 240 236 238 237 232 233 234 237 249 236 231 233 244 243 238 244 238 238 243 245 245 244 246 246 248 252 253 253 255 248 250 253 254 255 258 264 269 269 275 273 277 276
258 239 239 237 236 235 231 233 234 236 239 244 229 232 244 244 241 240 239 241 240 249 250 246 248 247 250 253 258 258 259 259 253 262 259 265 268 267 268 276 275 277 280
238 250 235 241 241 235 235 234 231 233 236 236 241 235 229 230 230 243 240 242 242 243 246 249 249 250 252 253 253 253 261 258 257 256 259 263 267 264 271 271 276 281 286
251 241 250 235 237 240 237 231 234 230 231 232 233 240 230 229 236 246 244 243 247 249 252 247 251 253 256 257 256 258 260 260 256 259 262 264 266 268 268 272 276 284 278
248 247 247 236 234 248 249 236 230 232 228 233 235 227 238 229 229 231 249 240 248 248 248 249 250 252 257 259 260 259 260 260 260 264 266 264 263 269 272 271 274 279 286
250 250 231 234 221 241 238 235 243 228 233 227 230 237 232 233 230 233 236 248 250 251 252 252 252 253 254 255 262 263 265 267 265 264 267 269 270 271 271 270 279 291 288
252 241 253 231 240 236 250 229 238 232 227 230 230 231 237 238 234 233 231 234 247 250 252 255 255 254 256 256 259 255 265 265 267 267 264 269 273 271 269 279 268 284 276
265 265 249 251 244 236 231 232 224 239 229 226 229 232 230 235 236 239 231 232 235 235 252 254 255 257 258 256 258 261 263 263 269 267 271 276 272 275 272 268 284 289 294
275 237 256 257 248 247 245 255 230 232 243 246 223 227 235 229 233 235 239 233 235 235 237 246 255 257 256 259 262 264 265 267 268 265 269 276 282 286 281 260 284 290 293
279 263 268 263 253 247 237 259 230 242 237 221 238 230 221 232 232 234 234 235 236 237 236 245 244 250 253 260 264 267 266 255 273 274 268 276 278 282 278 286 285 289 291
283 266 278 262 256 241 240 231 234 257 225 225 225 224 228 227 234 231 234 233 236 237 235 237 242 248 252 255 255 263 270 265 260 267 269 274 268 278 282 286 285 288 286
277 292 284 269 259 250 237 224 217 217 233 206 222 225 225 224 229 233 228 231 234 234 237 237 239 242 245 249 251 254 263 260 270 271 271 275 274 277 284 284 283 287 289
287 296 273 250 257 252 240 228 207 201 199 200 223 216 242 229 229 232 227 232 233 230 234 237 240 243 244 247 250 253 264 261 264 266 270 280 284 279 280 283 290 285 286
284 290 273 261 243 261 244 230 196 191 192 214 220 227 223 225 227 226 228 226 231 230 239 240 238 241 250 245 255 255 256 260 263 266 272 276 277 284 282 286 283 287 289
305 262 299 312 327 251 242 230 189 188 198 199 206 208 232 218 237 223 228 222 240 236 234 240 241 241 244 247 250 253 259 260 264 267 269 271 282 280 282 284 283 288 283
279 164 40 262 313 290 309 230 186 189 201 206 211 222 213 228 228 236 229 229 224 231 238 240 238 253 246 253 254 257 253 256 269 267 264 277 274 275 275 277 286 290 284
206 246 252 3 244 227 269 200 183 190 199 217 214 200 225 228 221 227 239 231 225 229 229 234 238 242 261 255 264 252 263 264 259 263 265 285 263 272 278 281 268 285 268
236 177 240 206 152 244 280 183 188 192 200 212 211 221 218 224 220 231 223 231 228 232 233 241 235 240 243 247 252 254 253 255 265 261 265 267 275 270 268 275 285 285 273